Location: Nag� el Ma?a??a
(24.0667°N, 32.8833°E)
Time: 14:39:57
(UTC+00:00)

N. Korean satellite - Pass Details

Date: 29 November 2022
Orbit: 407 x 442 km, 97.3° (Epoch: 04 February)

Event Time Altitude Azimuth Distance (km) Brightness Sun altitude
Rises 02:10:46 0° 33° (NNE) 2,503 10.4 -27.4°
Reaches altitude 10° 02:13:23 10° 55° (NE) 1,617 9.7 -26.8°
Maximum altitude 02:15:41 17° 96° (E) 1,254 9.5 -26.3°
Drops below altitude 10° 02:17:57 10° 138° (SE) 1,594 9.9 -25.8°
Sets 02:20:30 0° 160° (SSE) 2,451 10.6 -25.2°
